Flag for Germany Weather past 2 weeks in Landshut, Bavaria, Germany

Now
54 °F

Cool.


Feels Like: 54 °F
Forecast: 45 / 63 °F
Wind: 2 mph from North

Location: Erding Airport

Current Time: Aug 23, 2014 at 2:07:04 AM

Latest Report: Aug 23, 2014 at 1:20 AM


Visibility: N/A

Pressure: 30.01 "Hg

Humidity: 88%

Dew point: 50 °F

Location of LandshutLocation

Historic Weather in Landshut — Graph

°F

Landshut temperature yesterday

Maximum temperature yesterday: 70 °F (at 4:20 PM)
Minimum temperature yesterday: 46 °F (at 3:20 AM)
Average temperature yesterday: 58 °F

Past Weeks' High & Low Weather Summary

 TemperatureHumidityPressure
High72 °F (Aug 18, 3:20 PM)100% (Aug 19, 5:20 AM)30.09 "Hg (Aug 19, 5:20 AM)
Low46 °F (Aug 22, 3:20 AM)38% (Aug 21, 5:20 PM)29.86 "Hg (Aug 18, 1:20 PM)
Average60 °F75%29.99 "Hg
* Reported Aug 18 8:20 AM — Aug 23 12:20 AM, Landshut, Weather by CustomWeather, © 2014

Note: Actual official high and low records may vary slightly from our data, if they occured in-between our weather recording intervals... More about our weather records

Advertising

Landshut weather history for previous 24 hours

 ConditionsComfort  
Time TempWeatherWind HumidityBarometerVisibility
12:20 AM
Aug 23
54 °FCool.3 mph88%30.01 "HgN/A
11:20 PM
Aug 22
54 °FCool.3 mph88%30.01 "HgN/A
10:20 PM55 °FCool.2 mph82%29.98 "HgN/A
9:20 PM59 °FCool.3 mph72%29.98 "HgN/A
8:20 PM63 °FMild.3 mph64%29.98 "HgN/A
7:20 PM68 °FMild.3 mph49%29.95 "HgN/A
6:20 PM68 °FMild.6 mph49%29.95 "HgN/A
5:20 PM70 °FMild.3 mph43%29.98 "HgN/A
4:20 PM70 °FMild.7 mph46%29.98 "HgN/A
3:20 PM66 °FMild.9 mph52%29.98 "HgN/A
2:20 PM68 °FMild.7 mph53%30.01 "HgN/A
1:20 PM66 °FMild.7 mph56%30.01 "HgN/A
12:20 PM66 °FMild.7 mph56%30.01 "HgN/A
11:20 AM64 °FBroken clouds.5 mph68%30.04 "HgN/A
10:20 AM61 °FScattered clouds.2 mph77%30.04 "HgN/A
9:20 AM57 °FScattered clouds.3 mph88%30.01 "HgN/A
8:20 AM54 °FPartly sunny.3 mph94%30.01 "HgN/A
7:20 AM50 °FPartly sunny.2 mph100%30.01 "HgN/A
6:20 AM48 °FCool.1 mph100%30.01 "HgN/A
5:20 AM48 °FCool.2 mph94%30.01 "HgN/A
4:20 AM46 °FCool.2 mph100%30.01 "HgN/A
3:20 AM46 °FCool.1 mph100%30.04 "HgN/A
2:20 AM48 °FCool.2 mph100%30.04 "HgN/A
Weather by CustomWeather, © 2014

See weather overviewHow to use our weather pages